User: anonymous   Login
Location: Unspecified
(0.0000°N, 0.0000°E)
Time: 19:32:29
(UTC+00:00)
Language:

DNEPR OBJECT U - Orbit

View from above orbital plane
View from above orbital plane
View from above satellite
View from above satellite

Ground track
Ground track

The orbit data is extracted from the following two-line orbital elements,

1 39434U 13066U   19340.90178183 +.00000393 +00000-0 +31452-4 0  9997
2 39434 097.5738 052.4946 0031532 340.7214 019.2794 15.05435173330517
Epoch (UTC): 06 December 2019 21:38:33
Eccentricity: 0.0031532
inclination: 97.5738°
perigee height: 528 km
apogee height: 572 km
right ascension of ascending node: 52.4946°
argument of perigee: 340.7214°
revolutions per day: 15.05435173
mean anomaly at epoch: 19.2794°
orbit number at epoch: 33051

The dashed part of the orbit path shows where the satellite is in the earth's shadow,  

DLR